Location: Miles
(41.4492°N, 81.6087°W)
Time: 07:47:20
(UTC+00:00)

Vanguard 1 Rocket - Pass Details

Date: 20 September 2024
Orbit: 650 x 4218 km, 34.3° (Epoch: 05 October)

Event Time Altitude Azimuth Distance (km) Brightness Sun altitude
Rises 11:25:17 0° 272° (W) 6,060 10.9 1.6°
Reaches altitude 10° 11:28:35 10° 269° (W) 5,423 10.7 2.2°
Maximum altitude 11:46:43 66° 193° (SSW) 4,043 10.8 5.6°
Drops below altitude 10° 12:12:33 10° 118° (ESE) 7,307 13.7 10.4°
Sets 12:17:59 0° 116° (ESE) 8,151 13.9 11.4°
